Location: Tucson
(32.2217°N, 110.9265°W)
Time: 02:21:49
(UTC-07:00)

Tiros 1 - Pass Details

Date: 02 November 2021
Orbit: 630 x 663 km, 48.4° (Epoch: 07 December)

Event Time Altitude Azimuth Distance (km) Brightness Sun altitude
Rises 08:55:26 0° 295° (WNW) 2,990 10.0 24.2°
Reaches altitude 10° 08:59:15 10° 325° (NW) 2,075 9.3 24.8°
Maximum altitude 09:01:13 12° 350° (N) 1,919 9.3 25.1°
Drops below altitude 10° 09:03:12 10° 14° (NNE) 2,070 9.6 25.5°
Sets 09:07:00 0° 45° (NE) 2,976 10.6 26.1°
